Flag for Brazil Weather past 2 weeks in Recife, Pernambuco, Brazil

Now
81 °F

Passing clouds.


Feels Like: 84 °F
Forecast: 75 / 82 °F
Wind: 13 mph from Southeast

Location: Recife Aeroporto

Current Time: Jul 30, 2015 at 9:51:45 AM

Latest Report: Jul 30, 2015 at 9:00 AM


Visibility: N/A

Pressure: 30.07 "Hg

Humidity: 70%

Dew point: 70 °F

Location of RecifeLocation

Historic Weather in Recife — Graph

°F

Recife temperature yesterday

Maximum temperature yesterday: 81 °F (at 2:00 PM)
Minimum temperature yesterday: 72 °F (at 3:00 AM)
Average temperature yesterday: 76 °F

Past Weeks' High & Low Weather Summary

 TemperatureHumidityPressure
High84 °F (Jul 15, 12:00 PM)100% (Jul 21, 3:00 AM)30.07 "Hg (Jul 21, 3:00 AM)
Low37 °F (Jul 26, 2:00 PM)25% (Jul 26, 4:00 PM)29.95 "Hg (Jul 16, 3:00 AM)
Average76 °F83%30.02 "Hg
* Reported Jul 15 8:00 AM — Jul 30 8:00 AM, Recife, Weather by CustomWeather, © 2015

Note: Actual official high and low records may vary slightly from our data, if they occured in-between our weather recording intervals... More about our weather records

Advertising

Recife weather history for previous 24 hours

 ConditionsComfort  
Time TempWeatherWind HumidityBarometerVisibility
8:00 AM
Thu, Jul 30
77 °FBroken clouds.17 mph69%30.07 "HgN/A
7:00 AM79 °FScattered clouds.13 mph70%30.04 "HgN/A
6:00 AM77 °FScattered clouds.8 mph74%30.04 "HgN/A
5:00 AM77 °FPassing clouds.10 mph79%30.01 "HgN/A
4:00 AM77 °FPassing clouds.10 mph74%30.01 "HgN/A
3:00 AM77 °FPassing clouds.13 mph69%30.01 "HgN/A
2:00 AM77 °FPassing clouds.10 mph74%30.04 "HgN/A
1:00 AM77 °FPassing clouds.10 mph74%30.04 "HgN/A
12:00 AM77 °FPassing clouds.10 mph79%30.07 "HgN/A
11:00 PM
Wed, Jul 29
77 °FPassing clouds.10 mph74%30.07 "HgN/A
10:00 PM77 °FPassing clouds.12 mph79%30.07 "HgN/A
9:00 PM77 °FPassing clouds.12 mph79%30.07 "HgN/A
8:00 PM77 °FLight rain. Partly cloudy.13 mph79%30.04 "Hg4 mi
7:00 PM79 °FPassing clouds.14 mph74%30.04 "HgN/A
6:00 PM79 °FPartly cloudy.10 mph74%30.01 "HgN/A
5:00 PM79 °FScattered showers. Partly sunny.13 mph74%30.01 "HgN/A
4:00 PM81 °FScattered clouds.12 mph74%29.98 "HgN/A
3:00 PM81 °FScattered clouds.12 mph74%29.98 "HgN/A
2:00 PM81 °FBroken clouds.12 mph74%30.01 "HgN/A
1:00 PM77 °FLight rain. Broken clouds.8 mph89%30.01 "Hg2 mi
12:00 PM75 °FScattered showers. Broken clouds.12 mph94%30.04 "Hg5 mi
11:00 AM75 °FScattered showers. Partly sunny.9 mph94%30.07 "Hg5 mi
10:00 AM75 °FScattered showers. Partly sunny.7 mph89%30.07 "Hg5 mi
9:00 AM72 °FLight rain. Partly sunny.6 mph94%30.07 "Hg2 mi
Weather by CustomWeather, © 2015

See weather overviewHow to use our weather pages